Location: Bishopstone
(51.0167°N, 1.9000°W)
Time: 02:21:16
(UTC+00:00)

Cosmos 614 Rocket - Pass Details

Date: 16 September 2019
Orbit: 733 x 764 km, 74.1° (Epoch: 14 October)

Event Time Altitude Azimuth Distance (km) Brightness Sun altitude
Rises 19:32:37 0° 337° (NNW) 3,243 7.9 -11.9°
Reaches altitude 10° 19:35:05 10° 343° (NNW) 2,311 7.0 -12.3°
Maximum altitude 19:40:12 51° 59° (ENE) 954 4.3 -13.1°
Enters shadow 19:43:51 18° 130° (SE) 1,781 5.3 -13.6°
